User: anonymous   Login
Location: Unspecified
(0.0000°N, 0.0000°E)
Time: 07:58:10
(UTC+00:00)
Language:

MERIDIAN 4 - Orbit

View from above orbital plane
View from above orbital plane
View from above satellite
View from above satellite

Ground track
Ground track

The orbit data is extracted from the following two-line orbital elements,

1 37398U 11018A   17143.45741986 +.00000228 +00000-0 +10000-3 0  9997
2 37398 064.5103 167.0954 6763064 266.0680 271.1030 02.00604331044341
Epoch (UTC): 23 May 2017 10:58:41
Eccentricity: 0.6763064
inclination: 64.5103°
perigee height: 2218 km
apogee height: 38139 km
right ascension of ascending node: 167.0954°
argument of perigee: 266.0680°
revolutions per day: 2.00604331
mean anomaly at epoch: 271.1030°
orbit number at epoch: 4434

The dashed part of the orbit path shows where the satellite is in the earth's shadow,  

DLR